Weather in Pizhanka

Russia / Kirov Oblast     57°27′33″N   48°32′15″E
temp.,
°C
wind,
m/s
gust,
m/s
humid.,
%
clouds,
%
prec.,
mm/h
press.,
hPa
HPBL,
m
18 september, sat
sat1800:00+4nnw4790100 0.3 1016829
03:00+4nnw5997100 0.5 1017560
06:00+3nnw499084 0.2 1018454
09:00+6nnw587085 0.2 1019607
12:00+8nnw675998 0.1 10201524
15:00+6nnw5761100 0.3 10211170
18:00+5nnw698055 0.1 1022701
21:00+1nw39865 0.1 1023216
19 september, sun
sun1900:000nw310845 0.0 1023216
03:00−1nw38925 0.0 1024162
06:00−1nw37965 0.0 1024170
09:00+5nnw46665 0.0 1025632
12:00+8nnw564951 0.0 10251427
15:00+9n554576 0.0 10251563
18:00+3nne48705 0.0 1026220
21:000nne228025 0.0 102723
20 september, mon
mon2000:00+3nne2360100 0.0 102885
03:00+3ne2361100 0.0 102877
06:000ne347599 0.0 102871
09:00+5ene4550100 0.0 10291172
12:00+8e444344 0.0 10281340
15:00+9e454296 0.0 10281406
18:00+5ene356071 0.0 102888
21:00+2e3870100 0.0 1028161
21 september, tue
tue2100:00+2e4974100 0.0 1028215
03:00+1e41084100 0.0 1028227
06:00+2e51282100 0.0 1027336
09:00+5ese61062100 0.0 1026569
12:00+9ese6849100 0.0 1025991
15:00+10ese6746100 0.0 10231137
18:00+8e5952100 0.0 1022680
21:00+7e51059100 0.0 1022492
22 september, wed
wed2200:00+7e61160100 0.0 1020458
03:00+6e61363100 0.0 1019444
06:00+7e71462100 0.0 1018488
09:00+9e81359100 0.0 1017622
12:00+13e91352100 0.0 1016840
15:00+14e91453100 0.0 10141019
18:00+12ese91562100 0.1 10141042
21:00+9ese81489100 2.1 1014611